Date,TemperatureHighF,TemperatureAvgF,TemperatureLowF,DewpointHighF,DewpointAvgF,DewpointLowF,HumidityHigh,HumidityAvg,HumidityLow,PressureMaxIn,PressureMinIn,WindSpeedMaxMPH,WindSpeedAvgMPH,GustSpeedMaxMPH,PrecipitationSumIn
2012-1-1,79,62,37,36,29,18,82,38,14,30.27,30.16,26,5,26,0.00
2012-1-2,76,68,60,24,22,17,25,17,13,30.25,30.12,26,9,26,0.00
2012-1-3,78,58,40,36,28,19,63,35,11,30.28,30.12,21,2,21,0.00
2012-1-4,76,58,37,35,26,18,79,39,12,30.33,30.22,22,4,22,0.00
2012-1-5,75,56,40,30,23,14,57,31,10,30.26,30.01,16,2,16,0.00
2012-1-6,72,51,34,29,24,12,71,42,11,30.10,29.98,6,1,6,0.00
2012-1-7,72,53,35,34,25,19,71,40,14,30.04,29.88,17,2,17,0.00
2012-1-8,58,45,32,30,28,25,77,53,31,30.14,29.93,12,2,12,0.00
2012-1-9,62,44,30,32,28,25,84,57,28,30.30,30.14,11,2,11,0.00
2012-1-10,67,46,31,32,27,22,84,53,19,30.27,30.06,6,1,6,0.00
2012-1-11,63,46,33,32,28,24,79,53,23,30.10,29.98,6,1,6,0.00
2012-1-12,62,48,37,33,28,24,70,48,24,30.08,29.99,8,1,8,0.00
2012-1-13,67,49,31,26,19,6,74,37,11,30.22,30.07,24,4,24,0.00
2012-1-14,72,55,36,23,11,-4,45,21,5,30.24,30.09,21,2,21,0.00
2012-1-15,66,55,47,50,35,22,94,51,25,30.13,30.03,18,1,18,0.28
2012-1-16,60,53,45,51,48,43,96,86,65,30.11,30.00,13,2,13,0.08
2012-1-17,63,50,39,48,40,26,97,74,25,30.27,30.11,9,1,9,0.00
2012-1-18,68,48,34,42,36,28,96,68,24,30.32,30.18,8,1,8,0.00
2012-1-19,71,49,33,38,31,15,93,59,13,30.18,29.99,7,1,7,0.00
2012-1-20,71,49,32,37,29,15,90,55,12,30.10,30.00,7,1,7,0.00
2012-1-21,72,55,37,39,33,24,82,49,18,30.08,29.85,18,3,18,0.00
2012-1-22,61,51,37,38,30,19,82,49,20,30.10,29.93,16,2,16,0.00
2012-1-23,68,50,31,32,25,3,82,45,8,30.12,29.83,11,1,11,0.00
2012-1-24,59,50,41,40,35,28,75,57,35,30.13,29.84,15,2,15,0.00
2012-1-25,65,48,32,36,33,29,91,60,29,30.23,30.11,11,2,11,0.00
2012-1-26,75,51,33,35,31,24,85,53,17,30.21,30.01,10,1,10,0.00
2012-1-27,73,54,36,39,34,29,82,52,21,30.08,29.95,7,1,7,0.00
2012-1-28,73,58,40,38,33,26,82,44,20,30.18,30.04,19,4,19,0.00
2012-1-29,76,63,46,32,27,24,53,26,16,30.18,29.99,22,4,22,0.00
2012-1-30,75,55,38,32,26,18,70,38,13,30.07,29.93,16,2,16,0.00
2012-1-31,73,55,42,35,26,17,59,37,13,30.14,29.97,17,2,17,0.00
2012-2-1,74,52,34,30,25,18,72,40,13,30.17,29.99,9,1,9,0.00
2012-2-2,66,49,34,26,20,12,64,36,13,30.00,29.84,26,4,26,0.00
2012-2-3,64,46,30,26,22,12,69,43,14,30.07,29.98,10,2,10,0.00
2012-2-4,68,47,30,28,24,17,76,46,15,30.10,29.99,10,1,10,0.00
2012-2-5,71,51,32,29,26,24,74,44,18,30.10,29.95,16,2,16,0.00
2012-2-6,68,50,34,31,27,22,74,44,17,30.06,29.96,14,2,14,0.00
2012-2-7,76,57,36,36,29,25,66,38,20,30.06,29.90,12,2,14,0.00
2012-2-8,71,58,46,40,33,29,66,40,23,30.10,29.93,17,3,17,0.00
2012-2-9,74,55,39,42,35,30,85,52,24,30.14,30.01,19,2,19,0.00
2012-2-10,76,56,38,35,30,26,74,42,17,30.18,30.01,11,2,11,0.00
2012-2-11,80,59,38,33,26,18,68,35,11,30.05,29.78,22,3,22,0.00
2012-2-12,68,58,47,36,33,28,61,40,24,29.92,29.75,24,5,24,0.00
2012-2-13,66,54,36,36,33,28,81,48,28,30.00,29.83,17,2,17,0.00
2012-2-14,58,48,37,42,37,34,94,68,42,30.06,29.79,29,3,29,0.10
2012-2-15,63,47,32,38,31,24,95,60,25,30.14,29.93,12,1,12,0.01
2012-2-16,64,51,42,39,32,24,78,51,24,30.00,29.89,15,2,15,0.00
2012-2-17,53,47,38,45,41,36,91,79,69,30.15,29.96,8,1,8,0.00
2012-2-18,66,48,33,43,34,20,96,63,19,30.20,30.02,11,1,11,0.01
2012-2-19,66,51,35,36,31,26,80,51,22,30.03,29.83,23,4,23,0.00
2012-2-20,66,51,35,38,30,21,87,49,19,30.11,30.00,11,2,11,0.00
2012-2-21,74,52,33,29,24,14,72,40,11,30.16,30.04,11,2,11,0.00
2012-2-22,77,55,35,27,23,12,66,34,9,30.15,29.92,14,2,14,0.00
2012-2-23,77,57,37,25,22,10,57,30,8,29.94,29.76,19,3,19,0.00
2012-2-24,78,58,39,32,27,22,61,34,13,30.07,29.90,13,2,13,0.00
2012-2-25,78,58,39,32,26,17,65,34,10,30.08,29.87,19,2,19,0.00
2012-2-26,77,58,38,30,26,22,59,32,15,29.94,29.79,18,2,18,0.00
2012-2-27,78,61,44,42,32,27,59,37,17,29.90,29.72,27,6,27,0.00
2012-2-28,61,51,40,40,30,24,62,45,26,30.17,29.85,22,5,22,0.00
2012-2-29,70,50,31,32,23,8,78,42,10,30.22,30.07,13,2,13,0.00
2012-3-1,71,53,34,27,21,10,65,34,10,30.10,29.88,21,3,21,0.00
2012-3-2,62,49,36,32,16,-7,65,32,6,30.21,29.91,26,4,27,0.00
2012-3-3,69,49,29,14,8,0,41,22,7,30.33,30.20,12,2,12,0.00
2012-3-4,82,56,34,21,16,12,45,24,8,30.25,30.00,13,2,13,0.00
2012-3-5,85,60,37,25,19,5,51,25,5,30.08,29.92,12,2,12,0.00
2012-3-6,82,64,40,26,16,3,45,20,5,29.95,29.64,25,4,25,0.00
2012-3-7,63,56,40,27,18,5,32,23,15,30.01,29.64,27,6,27,0.00
2012-3-8,67,49,29,22,15,9,48,27,14,30.30,30.01,22,3,22,0.00
2012-3-9,63,55,48,23,21,18,32,26,18,30.28,30.05,36,10,36,0.00
2012-3-10,58,50,46,30,28,23,51,42,31,30.05,29.99,29,9,29,0.00
2012-3-25,86,67,48,39,27,10,59,28,6,29.85,29.76,10,3,23,0.00
2012-3-26,77,62,48,44,37,30,69,43,19,29.97,29.84,7,2,15,0.00
2012-3-27,84,64,43,39,30,9,75,36,6,30.00,29.84,7,2,13,0.00
2012-3-28,86,66,46,35,28,10,59,29,6,29.96,29.79,7,2,14,0.00
2012-3-29,84,66,46,34,23,8,53,25,6,29.93,29.80,10,2,18,0.00
2012-3-30,87,67,46,31,25,18,50,25,8,29.93,29.81,7,2,14,0.00
2012-3-31,90,71,49,36,27,16,51,23,7,29.91,29.73,9,3,17,0.00
2012-4-1,76,64,49,38,28,16,44,26,16,29.78,29.63,28,6,28,0.00
2012-4-2,65,54,41,23,16,4,46,24,9,29.89,29.75,29,6,29,0.00
2012-4-3,76,57,36,21,17,11,45,23,11,30.00,29.84,23,3,23,0.00
2012-4-4,82,62,40,25,19,11,47,23,8,29.97,29.80,13,2,14,0.00
2012-4-5,87,69,46,28,18,9,41,18,6,29.84,29.69,25,4,25,0.00
2012-4-6,82,66,47,30,23,11,45,22,8,29.95,29.82,18,3,18,0.00
2012-4-7,88,68,46,28,20,14,40,19,7,30.00,29.87,12,2,12,0.00
2012-4-8,93,72,48,27,22,18,39,18,8,30.00,29.84,16,2,16,0.00
2012-4-9,92,73,53,29,23,16,36,18,7,29.93,29.77,14,2,14,0.00
2012-4-10,92,72,51,30,23,9,39,19,5,29.87,29.71,16,2,16,0.00
2012-4-11,81,66,53,44,37,30,50,34,19,29.93,29.78,27,6,27,0.00
2012-4-12,72,59,47,42,34,26,68,42,22,30.03,29.91,19,3,20,0.00
2012-4-13,78,62,41,31,20,4,57,25,8,29.94,29.66,24,4,26,0.00
2012-4-14,63,53,42,43,29,7,90,46,12,29.99,29.69,33,8,33,0.09
2012-4-15,68,53,36,36,33,31,87,50,27,30.15,29.99,18,3,18,0.00
2012-4-16,81,62,40,37,31,12,76,37,10,30.15,29.97,13,2,14,0.00
2012-4-17,90,70,45,36,24,12,59,24,6,30.01,29.82,13,2,13,0.00
2012-4-18,93,72,48,32,21,7,45,19,5,29.92,29.77,21,3,21,0.00
2012-4-19,90,73,50,33,22,10,40,18,6,29.89,29.75,23,3,23,0.00
2012-4-20,95,76,53,34,31,25,40,21,11,29.91,29.75,17,3,17,0.00
2012-4-21,99,79,56,40,31,20,46,21,6,29.86,29.70,15,2,15,0.00
2012-4-22,102,82,56,38,25,-3,42,17,2,29.86,29.69,15,2,15,0.00
2012-4-23,100,84,64,43,33,24,35,18,8,29.83,29.66,20,2,20,0.00
2012-4-24,96,78,58,47,38,28,54,27,12,29.85,29.70,21,2,21,0.00
2012-4-25,94,78,59,39,29,16,37,19,6,29.86,29.72,18,2,18,0.00
2012-4-26,81,72,58,48,34,25,41,26,14,29.88,29.76,27,5,27,0.00
2012-4-27,86,68,48,39,34,25,62,32,13,29.92,29.75,18,3,18,0.00
2012-4-28,90,72,50,40,34,27,58,28,11,29.79,29.60,19,3,19,0.00
2012-4-29,90,74,56,42,35,26,52,28,11,29.80,29.69,16,2,16,0.00
2012-4-30,93,76,54,45,37,25,57,28,11,29.87,29.70,16,3,16,0.00
2012-5-1,92,76,58,44,33,18,49,24,8,29.79,29.62,17,3,17,0.00
2012-5-2,90,74,54,42,30,16,55,24,8,29.81,29.69,18,3,18,0.00
2012-5-3,93,76,54,41,28,14,51,22,6,29.88,29.76,16,2,16,0.00
2012-5-4,95,76,54,36,26,17,40,19,7,29.90,29.76,19,3,19,0.00
2012-5-5,95,76,54,38,22,6,35,17,4,29.87,29.72,23,3,23,0.00
2012-5-6,94,76,52,34,19,8,40,15,5,29.84,29.71,20,4,20,0.00
2012-5-7,89,72,50,31,14,1,32,13,5,29.82,29.69,17,3,17,0.00
2012-5-8,91,73,49,40,14,-10,31,13,2,29.79,29.61,30,4,30,0.00
2012-5-9,82,68,53,50,43,30,67,41,17,29.90,29.67,29,8,30,0.00
2012-5-10,89,71,52,47,41,31,75,39,16,29.85,29.67,20,3,20,0.00
2012-5-11,96,78,54,46,31,17,52,22,7,29.84,29.69,19,3,19,0.00
2012-5-12,96,77,55,35,22,8,36,15,4,29.91,29.80,19,3,20,0.00
2012-5-13,101,80,55,36,22,10,34,15,4,29.91,29.74,19,3,19,0.00
2012-5-14,100,81,58,40,22,4,36,15,3,29.83,29.68,19,2,19,0.00
2012-5-15,100,88,78,40,31,19,25,14,6,29.79,29.63,27,7,27,0.00
2012-5-16,103,89,75,36,27,14,20,12,5,29.73,29.58,19,4,19,0.00
2012-5-17,102,84,60,35,25,5,34,14,3,29.76,29.59,19,4,19,0.00
2012-5-18,96,82,65,42,32,21,35,19,8,29.68,29.52,30,5,30,0.00
2012-5-19,95,77,56,37,27,15,42,18,6,29.77,29.68,16,2,16,0.00
2012-5-20,101,80,56,36,20,-17,37,15,2,29.83,29.71,13,2,13,0.00
2012-5-21,107,85,58,36,17,-14,30,12,1,29.84,29.67,17,2,17,0.00
2012-5-22,106,85,60,35,16,-16,30,10,1,29.80,29.59,25,4,25,0.00
2012-5-23,102,85,63,40,24,6,29,13,3,29.65,29.45,32,6,32,0.00
2012-5-24,98,85,72,40,32,23,23,15,10,29.55,29.40,21,5,21,0.00
2012-5-25,96,82,63,43,34,24,34,19,8,29.58,29.49,24,5,24,0.00
2012-5-26,83,74,58,46,35,19,33,25,15,29.80,29.58,23,5,23,0.00
2012-5-27,86,69,48,24,12,-14,31,14,2,29.91,29.80,18,2,18,0.00
2012-5-28,94,73,48,24,13,-10,31,13,2,29.90,29.76,14,2,14,0.00
2012-5-29,99,79,51,31,11,-6,29,10,2,29.88,29.74,19,3,19,0.00
2012-5-30,99,79,54,32,15,-6,30,11,2,29.85,29.69,17,3,17,0.00
2012-5-31,103,81,57,30,20,4,28,12,4,29.74,29.57,15,2,15,0.00
2012-6-1,108,89,62,40,20,8,29,10,3,29.72,29.55,18,3,18,0.00
2012-6-2,102,86,63,44,27,18,36,14,6,29.73,29.60,16,3,16,0.00
2012-6-3,102,84,63,41,31,22,35,16,6,29.76,29.66,19,3,19,0.00
2012-6-4,100,84,61,44,30,21,34,17,6,29.80,29.62,18,4,18,0.00
2012-6-5,100,84,64,42,32,27,33,17,9,29.74,29.56,20,4,20,0.00
2012-6-6,104,85,61,42,27,-17,39,17,1,29.67,29.54,22,4,23,0.00
2012-6-7,104,84,60,38,21,5,36,14,3,29.74,29.63,17,3,17,0.00
2012-6-8,104,85,60,35,21,-4,33,13,2,29.75,29.60,20,3,20,0.00
2012-6-9,104,85,62,42,22,-2,32,13,2,29.67,29.51,34,4,34,0.00
2012-6-10,101,84,62,40,30,26,32,16,8,29.73,29.61,18,3,18,0.00
2012-6-11,103,86,65,44,34,24,39,18,7,29.80,29.67,15,2,15,0.00
2012-6-12,105,86,62,38,26,-14,32,14,2,29.82,29.63,16,2,16,0.00
2012-6-13,105,87,63,42,25,14,30,13,5,29.69,29.53,13,3,16,0.00
2012-6-14,102,86,63,51,32,17,30,16,5,29.72,29.56,16,3,16,0.00
2012-6-15,102,86,67,48,34,12,43,19,4,29.72,29.56,19,3,19,0.00
2012-6-16,103,82,64,62,44,32,66,27,11,29.81,29.66,27,3,27,0.03
2012-6-17,107,89,66,52,44,34,53,24,10,29.80,29.61,21,4,21,0.00
2012-6-18,106,91,69,51,36,25,36,17,7,29.69,29.52,23,4,23,0.00
2012-6-19,104,89,67,43,16,-16,30,10,1,29.62,29.49,23,4,23,0.00
2012-6-20,106,87,60,31,14,-2,24,9,2,29.67,29.56,16,3,16,0.00
2012-6-21,108,88,63,40,30,16,28,14,4,29.75,29.59,9,2,13,0.00
2012-6-22,109,92,73,50,44,38,38,21,10,29.69,29.47,21,3,21,0.00
2012-6-23,107,92,71,48,41,36,34,19,11,29.64,29.48,20,3,20,0.00
2012-6-24,103,90,78,62,55,44,50,32,19,29.75,29.63,26,3,26,0.00
2012-6-25,104,90,77,61,56,50,53,34,18,29.82,29.62,18,2,18,0.00
2012-6-26,106,90,76,60,57,51,54,35,18,29.69,29.53,22,3,22,0.00
2012-6-27,108,92,78,58,54,49,44,29,16,29.74,29.59,25,4,25,0.00
2012-6-28,106,92,76,59,56,52,48,31,19,29.83,29.67,26,4,26,0.00
2012-6-29,107,92,75,59,53,47,48,28,15,29.83,29.62,23,3,23,0.00
2012-6-30,106,92,76,62,52,40,58,29,14,29.76,29.54,27,4,27,0.00
2012-7-1,106,92,79,53,46,40,37,22,13,29.68,29.50,23,4,23,0.00
2012-7-2,104,89,76,60,55,50,44,33,17,29.72,29.53,21,3,21,0.00
2012-7-3,94,82,70,68,61,56,93,50,31,29.80,29.62,22,4,22,0.08
2012-7-4,90,74,69,71,68,63,95,83,43,29.84,29.75,31,2,31,0.54
2012-7-5,96,81,66,68,61,50,97,57,23,29.89,29.73,19,3,19,0.01
2012-7-6,99,86,70,66,58,50,81,44,22,29.85,29.68,23,3,23,0.00
2012-7-7,103,89,74,60,50,34,60,31,10,29.83,29.69,21,3,21,0.00
2012-7-8,104,87,79,63,58,53,52,38,20,29.82,29.71,24,2,24,0.00
2012-7-9,107,89,74,63,58,51,63,37,18,29.81,29.65,21,2,21,0.00
2012-7-10,106,92,81,65,58,54,48,33,20,29.75,29.55,14,3,14,0.00
2012-7-11,104,94,85,64,60,55,47,34,21,29.76,29.57,21,5,21,0.00
2012-7-12,106,89,77,67,62,50,67,43,18,29.76,29.59,20,3,20,0.00
2012-7-13,97,83,75,70,65,62,73,56,34,29.83,29.73,16,2,16,0.01
2012-7-14,96,80,72,72,69,65,93,71,41,29.87,29.77,25,2,25,0.59
2012-7-15,99,79,69,71,67,60,96,71,32,29.87,29.68,23,3,23,0.96
2012-7-16,95,82,68,68,64,60,94,60,36,29.83,29.70,14,2,14,0.00
2012-7-17,96,84,73,68,59,49,77,47,21,29.84,29.70,17,2,17,0.00
2012-7-18,101,86,68,62,52,44,70,35,16,29.84,29.69,23,3,23,0.00
2012-7-19,102,85,74,70,56,48,73,39,19,29.84,29.70,19,2,19,0.03
2012-7-20,103,83,70,71,63,52,94,56,20,29.90,29.70,18,2,18,0.18
2012-7-21,96,79,71,71,67,59,95,69,34,29.86,29.77,25,2,25,0.21
2012-7-22,93,77,70,72,68,64,90,76,40,29.90,29.81,27,1,27,0.10
2012-7-23,98,81,68,71,67,62,94,67,31,29.90,29.77,18,2,18,0.20
2012-7-24,95,78,69,70,66,62,90,70,34,29.87,29.78,25,2,25,0.07
2012-7-25,98,84,69,69,60,50,90,52,22,29.90,29.71,20,3,20,0.00
2012-7-26,99,86,72,66,59,53,72,44,23,29.83,29.69,19,3,19,0.00
2012-7-27,101,87,75,69,60,52,80,44,23,29.81,29.63,32,4,32,0.02
2012-7-28,97,79,72,72,68,64,90,72,36,29.87,29.74,19,2,19,0.09
2012-7-29,96,77,69,73,69,62,96,81,35,29.91,29.77,18,1,18,0.67
2012-7-30,95,82,70,72,65,57,97,62,30,29.92,29.77,21,2,21,0.00
2012-7-31,96,82,70,71,64,58,87,58,31,29.93,29.79,14,2,14,0.04
2012-8-1,99,85,71,69,60,38,88,50,14,29.94,29.77,14,2,14,0.00
2012-8-2,101,86,70,65,58,53,74,43,22,29.87,29.68,14,2,14,0.00
2012-8-3,103,87,70,62,54,48,66,37,17,29.78,29.61,14,2,14,0.00
2012-8-4,104,88,71,64,56,50,66,36,18,29.77,29.66,18,2,18,0.00
2012-8-5,104,87,73,72,61,56,90,46,22,29.89,29.69,27,3,27,0.16
2012-8-6,105,86,70,74,66,58,91,58,23,29.91,29.73,15,2,15,0.05
2012-8-7,105,88,71,70,64,57,90,49,23,29.85,29.66,16,2,16,0.00
2012-8-8,108,89,75,75,64,59,90,46,22,29.80,29.62,33,3,34,0.58
2012-8-9,106,90,74,72,61,46,82,43,15,29.83,29.62,34,2,34,0.00
2012-8-10,106,91,71,67,55,45,69,34,16,29.78,29.56,18,2,18,0.00
2012-8-11,105,88,76,70,62,54,67,45,21,29.70,29.60,17,2,17,0.05
2012-8-12,111,90,69,68,55,39,75,38,10,29.73,29.58,25,2,25,0.00
2012-8-13,111,93,75,70,54,44,62,31,11,29.73,29.56,20,3,20,0.02
2012-8-14,108,90,75,71,58,52,86,39,18,29.72,29.53,25,3,25,0.04
2012-8-15,96,84,72,69,66,62,82,56,34,29.80,29.61,19,3,19,0.00
2012-8-16,90,81,74,69,66,64,80,62,45,29.88,29.73,8,1,8,0.01
2012-8-17,91,77,71,72,70,66,94,79,47,29.89,29.82,18,1,18,0.04
2012-8-18,95,82,70,71,68,66,95,67,43,29.88,29.69,16,3,16,0.00
2012-8-19,100,84,72,72,66,60,94,58,29,29.78,29.59,30,3,30,0.36
2012-8-20,101,84,73,73,69,61,96,65,30,29.82,29.65,18,2,18,0.00
2012-8-21,99,82,74,72,70,60,89,69,33,29.80,29.67,27,2,27,0.16
2012-8-22,87,76,69,72,69,64,95,81,48,29.92,29.75,19,1,19,0.71
2012-8-23,90,80,73,74,70,66,97,76,49,29.85,29.71,16,2,16,0.09
2012-8-24,94,82,70,71,66,60,95,64,34,29.82,29.67,17,2,17,0.00
2012-8-25,97,83,69,67,63,60,86,55,32,29.75,29.62,17,2,17,0.00
2012-8-26,100,86,69,67,62,57,81,49,27,29.80,29.67,22,3,22,0.00
2012-8-27,103,88,77,68,62,56,71,43,23,29.81,29.66,18,3,18,0.00
2012-8-28,102,89,75,63,53,38,64,33,13,29.84,29.68,22,4,22,0.00
2012-8-29,102,86,69,66,52,42,69,35,14,29.80,29.61,17,2,17,0.00
2012-8-30,101,84,71,68,63,51,81,53,22,29.75,29.59,20,2,20,0.00
2012-8-31,98,84,70,66,63,60,77,51,30,29.81,29.68,18,2,18,0.00
2012-9-1,104,87,71,66,61,53,77,46,20,29.81,29.66,13,2,13,0.00
2012-9-2,103,84,72,66,62,54,72,49,23,29.82,29.66,24,2,24,0.00
2012-9-3,98,84,70,67,63,61,74,53,34,29.95,29.74,20,3,20,0.00
2012-9-4,91,81,74,67,64,61,70,57,43,29.96,29.77,16,3,16,0.00
2012-9-5,95,84,74,70,67,60,79,58,40,29.87,29.68,19,3,19,0.00
2012-9-6,94,79,72,72,68,66,94,73,42,29.86,29.69,17,1,17,0.08
2012-9-7,89,78,70,72,70,68,95,78,54,29.92,29.79,14,2,14,0.00
2012-9-8,88,78,73,70,57,-100,87,55,41,29.87,29.77,28,8,28,0.00
2012-9-9,91,80,68,65,60,56,90,54,36,29.89,29.80,22,5,22,0.16
2012-9-10,94,76,69,68,65,59,92,72,33,29.93,29.77,18,2,18,0.06
2012-9-11,86,73,68,70,65,57,93,76,40,29.91,29.82,23,1,23,0.13
2012-9-12,89,77,67,68,65,62,97,71,43,29.93,29.80,17,2,17,0.01
2012-9-13,95,79,63,65,59,50,92,54,28,29.95,29.80,26,4,26,0.00
2012-9-14,86,78,71,52,49,46,48,37,29,29.99,29.89,32,9,32,0.00
2012-9-15,91,78,64,49,43,36,50,30,15,30.02,29.88,27,5,27,0.00
2012-9-16,96,76,56,50,44,41,65,36,17,30.01,29.85,16,2,16,0.00
2012-9-17,93,76,57,57,50,43,66,42,20,29.95,29.79,20,3,20,0.00
2012-9-18,97,80,61,59,51,39,75,41,19,29.93,29.79,11,2,11,0.00
2012-9-19,100,81,61,52,40,27,62,28,8,29.90,29.76,17,2,17,0.00
2012-9-20,100,82,69,52,42,35,47,26,11,29.86,29.73,14,1,14,0.00
2012-9-21,102,83,65,52,42,33,57,27,10,29.84,29.69,14,2,14,0.00
2012-9-22,104,82,67,52,42,30,49,27,9,29.85,29.74,20,2,20,0.00
2012-9-23,101,84,65,52,41,32,50,26,10,29.88,29.77,14,2,14,0.00
2012-9-24,98,81,63,51,44,37,54,30,13,29.88,29.72,19,2,19,0.00
2012-9-25,94,80,61,52,46,43,55,33,20,29.81,29.66,18,3,18,0.00
2012-9-26,94,78,64,56,48,40,68,37,17,29.80,29.68,14,2,14,0.00
2012-9-27,94,78,61,52,46,42,58,35,18,29.88,29.75,13,-12,13,0.00
2012-9-28,89,77,69,56,50,46,56,39,24,29.85,29.73,22,3,22,0.00
2012-9-29,95,80,68,56,49,44,54,35,22,29.92,29.76,15,3,15,0.00
2012-9-30,98,80,60,53,42,30,63,31,10,29.90,29.76,16,2,16,0.00
2012-10-1,100,80,58,46,36,30,47,25,9,29.87,29.73,13,2,13,0.00
2012-10-2,99,79,60,45,36,30,44,24,10,29.84,29.71,17,2,17,0.00
2012-10-3,97,79,59,43,36,29,43,24,10,29.93,29.81,16,2,16,0.00
2012-10-4,95,78,59,47,39,36,47,28,14,29.99,29.87,17,2,17,0.00
2012-10-5,92,74,55,48,38,29,62,31,12,29.98,29.80,12,2,12,0.00
2012-10-6,90,73,56,45,35,29,49,28,12,29.89,29.74,12,2,12,0.00
2012-10-7,90,74,60,46,39,33,53,31,15,29.87,29.75,17,2,17,0.00
2012-10-8,91,73,56,46,39,34,56,32,14,29.91,29.77,13,2,13,0.00
2012-10-9,91,74,57,50,38,27,56,30,11,29.90,29.76,12,2,12,0.00
2012-10-10,90,73,55,47,41,34,59,34,17,29.93,29.75,14,2,14,0.00
2012-10-11,82,72,60,61,49,39,74,46,29,29.84,29.74,9,1,9,0.02
2012-10-12,74,66,55,54,45,40,68,49,31,30.00,29.80,20,3,20,0.00
2012-10-13,79,62,46,42,38,35,72,44,24,30.12,29.96,12,2,12,0.00
2012-10-14,90,71,46,43,34,28,67,31,12,30.06,29.88,18,3,18,0.00
2012-10-15,92,76,57,37,28,18,37,19,7,29.89,29.74,17,2,17,0.00
2012-10-16,90,69,52,34,29,24,46,25,10,29.85,29.71,10,2,12,0.00
2012-10-17,88,71,52,42,37,28,53,30,16,29.90,29.76,14,2,14,0.00
2012-10-18,88,74,61,61,54,38,83,53,34,29.98,29.81,14,2,14,0.00
2012-10-19,91,73,56,51,44,32,74,40,13,29.91,29.72,11,2,11,0.00
2012-10-20,89,72,55,47,43,39,57,37,20,29.82,29.67,16,2,16,0.00
2012-10-21,85,70,54,51,43,38,71,41,21,29.83,29.72,16,2,16,0.00
2012-10-22,86,67,50,48,41,37,67,41,20,29.90,29.79,12,1,12,0.00
2012-10-23,86,69,50,48,43,40,72,43,22,29.87,29.75,13,1,13,0.00
2012-10-24,83,68,53,48,40,26,67,39,22,29.90,29.76,20,3,20,0.00
2012-10-25,81,62,44,32,25,15,54,28,10,29.99,29.86,12,2,12,0.00
2012-10-26,84,63,42,27,22,18,43,23,10,30.01,29.84,12,2,12,0.00
2012-10-27,85,70,56,33,29,22,36,22,13,29.90,29.77,22,4,22,0.00
2012-10-28,90,67,48,38,32,28,52,30,12,29.99,29.85,14,2,14,0.00
2012-10-29,89,68,50,38,33,29,54,31,12,30.05,29.91,12,2,14,0.00
2012-10-30,89,67,48,40,32,18,57,31,8,30.03,29.88,12,2,12,0.00
2012-10-31,88,66,47,36,29,15,54,28,8,30.00,29.86,10,1,10,0.00
2012-11-1,88,67,47,32,29,25,47,27,12,29.96,29.81,11,2,11,0.00
2012-11-2,83,64,47,39,34,28,52,34,19,29.93,29.80,12,1,12,0.00
2012-11-3,82,65,47,44,37,34,65,38,20,30.00,29.89,11,1,11,0.00
2012-11-4,86,66,47,41,35,30,62,36,16,30.06,29.95,14,2,14,0.00
2012-11-5,89,66,46,35,30,25,56,30,11,30.08,29.95,12,1,12,0.00
2012-11-6,90,66,45,32,27,23,48,26,9,30.08,29.94,11,1,11,0.00
2012-11-7,90,68,48,33,30,24,46,27,10,30.03,29.83,12,1,12,0.00
2012-11-8,84,69,57,46,36,28,53,32,14,29.90,29.78,20,2,20,0.00
2012-11-9,77,67,58,58,51,43,94,60,40,29.88,29.68,26,4,26,0.20
2012-11-10,61,53,46,50,36,24,88,53,28,30.05,29.73,22,5,22,0.03
2012-11-11,59,46,32,30,24,18,81,46,21,30.31,30.05,16,1,16,0.00
2012-11-12,69,55,35,24,15,6,62,25,10,30.30,30.10,25,6,25,0.00
2012-11-13,76,54,35,24,18,5,56,29,7,30.15,30.00,20,2,20,0.00
2012-11-14,82,59,40,22,16,3,45,22,5,30.12,29.97,12,1,13,0.00
2012-11-15,78,59,40,33,26,21,50,30,15,30.11,30.01,6,1,6,0.00
2012-11-16,79,60,48,35,27,18,50,31,11,30.09,30.00,11,1,11,0.00
2012-11-17,76,62,48,48,36,26,61,40,25,30.09,29.97,7,1,7,0.00
2012-11-18,76,64,52,51,46,42,80,55,32,30.09,29.97,11,1,11,0.00
2012-11-19,76,60,45,47,42,37,84,55,32,30.17,30.06,10,1,10,0.00
2012-11-20,80,62,42,44,37,34,81,45,20,30.13,29.96,17,2,17,0.00
2012-11-21,80,63,49,43,38,34,64,42,24,30.00,29.89,8,1,8,0.00
2012-11-22,80,60,43,39,34,30,67,41,17,30.11,29.96,9,1,9,0.00
2012-11-23,85,65,43,35,32,28,64,34,15,30.17,30.05,20,4,20,0.00
2012-11-24,82,70,54,37,34,31,45,26,17,30.09,29.85,21,4,21,0.00
2012-11-25,82,61,44,39,30,16,64,35,9,29.93,29.78,14,2,14,0.00
2012-11-26,78,58,40,30,26,23,52,33,14,30.11,29.90,9,1,9,0.00
2012-11-27,82,62,41,33,29,26,58,33,14,30.17,30.02,10,1,10,0.00
2012-11-28,78,60,44,40,34,28,57,39,22,30.14,30.01,9,1,9,0.00
2012-11-29,75,57,41,39,34,31,73,46,24,30.17,30.06,12,2,12,0.00
2012-11-30,76,57,40,42,36,31,73,49,26,30.15,30.01,8,1,8,0.00
2012-12-1,76,56,39,40,35,29,80,49,20,30.12,29.99,8,1,8,0.00
2012-12-2,78,56,39,34,31,24,68,42,14,30.10,29.99,9,1,9,0.00
2012-12-3,74,56,42,40,35,32,68,47,27,30.15,30.02,10,1,10,0.00
2012-12-4,78,58,41,43,36,31,76,48,18,30.23,30.09,12,2,14,0.00
2012-12-5,82,60,43,37,32,28,66,39,15,30.12,29.92,9,1,9,0.00
2012-12-6,78,58,44,36,32,28,59,40,17,29.96,29.79,11,1,11,0.00
2012-12-7,74,56,42,39,34,30,66,45,26,29.93,29.83,13,2,13,0.00
2012-12-8,71,54,38,40,34,30,79,50,24,29.96,29.85,13,1,13,0.00
2012-12-9,68,52,37,34,27,21,73,43,17,30.08,29.94,23,2,23,0.00
2012-12-10,63,46,33,22,17,9,58,33,16,30.13,30.01,11,2,11,0.00
2012-12-11,66,44,28,17,12,8,46,29,13,30.14,30.01,9,1,9,0.00
2012-12-12,71,50,30,28,20,11,47,32,14,30.10,29.94,9,1,9,0.00
2012-12-13,72,56,39,51,35,23,94,49,23,29.98,29.68,19,3,19,0.46
2012-12-14,54,47,41,51,43,39,94,86,69,30.06,29.67,26,-19,26,0.27
2012-12-15,55,49,45,46,43,39,91,82,62,30.08,29.95,14,2,14,0.10
2012-12-16,55,47,36,46,40,32,94,78,44,30.18,30.00,15,2,15,0.09
2012-12-17,61,44,32,42,36,31,96,76,41,30.23,30.01,8,1,8,0.00
2012-12-18,67,51,35,46,40,34,95,71,38,30.02,29.75,17,2,17,0.01
2012-12-19,56,44,32,46,34,28,92,68,44,30.32,29.73,31,5,31,0.14
2012-12-20,63,47,29,31,21,6,94,48,13,30.36,30.14,26,6,26,0.00
2012-12-21,68,56,40,34,18,6,65,25,13,30.15,30.00,22,4,22,0.00
2012-12-22,70,55,44,41,35,28,82,51,23,30.11,30.00,10,1,10,0.00
2012-12-23,67,50,37,42,37,32,93,66,28,30.15,29.99,8,1,8,0.00
2012-12-24,62,51,39,42,38,35,87,63,40,30.06,29.87,22,3,22,0.00
2012-12-25,55,48,39,42,35,30,91,64,41,30.09,29.97,12,1,12,0.00
2012-12-26,64,47,34,34,26,11,85,50,13,30.01,29.82,10,1,10,0.00
2012-12-27,54,41,29,37,30,26,90,69,37,30.08,29.85,24,2,24,0.00
2012-12-28,55,40,29,34,29,23,95,67,37,30.21,30.08,10,1,10,0.01
2012-12-29,64,47,30,29,24,20,80,45,20,30.15,29.95,16,2,16,0.00
2012-12-30,60,44,35,38,30,22,94,62,24,29.99,29.79,21,2,21,0.28
2012-12-31,49,36,34,40,19,-100,95,73,50,30.23,30.00,17,-123,17,0.19
2013-1-1,53,38,27,32,27,-100,94,69,29,30.30,30.13,12,2,12,0.00